Volver al catálogo

NORSAT 4

ActivoCienciaSSO
NORAD 62702·PAYLOAD·🇳🇴 Norway

Lanzado Jan 14, 2025 desde Vandenberg Space Force Base

Loading…

Próximos Pases (próximas 24 horas)

TLE

ActualizadoSource: Space-Track

Época: Sep 14, 2026, 10:53 UTC

1 62702U 25009CX  26257.45393844  .00001134  00000-0  10809-3 0  9995
2 62702  97.6989 334.5852 0003153  94.8131 265.3450 14.95309933 90702

Sigue NORSAT 4 en tiempo real con AllMySat

Download on the App Store